GW7044 Weather Reports


time (UTC)temp
C
wind
direction
speed
KPH
gust
KPH
rain 1hr
cm
rain 24hr
cm
rain mn
cm
humidity
%
barometer
mb
20260508203524 15 193 11.3 17.7 0.00 0.00 0.00 48 1006.2
20260508203018 15 178 12.9 22.5 0.00 0.00 0.00 47 1006.2
20260508202611 15 198 11.3 20.9 0.00 0.00 0.00 48 1006.2
20260508202055 14 193 11.3 20.9 0.00 0.00 0.00 47 1006.2
20260508201543 14 189 9.7 17.7 0.00 0.00 0.00 46 1006.2
20260508201035 13 181 11.3 17.7 0.00 0.00 0.00 48 1006.2
20260508200523 14 190 9.7 20.9 0.00 0.00 0.00 46 1006.2
20260508200114 14 192 9.7 20.9 0.00 0.00 0.00 47 1006.3
20260508195603 13 202 9.7 16.1 0.00 0.00 0.00 47 1006.2
20260508195133 14 202 9.7 12.9 0.00 0.00 0.00 47 1006.2
20260508194539 13 197 9.7 16.1 0.00 0.00 0.00 47 1006.1
20260508194034 14 213 9.7 17.7 0.00 0.00 0.00 47 1006.1
20260508193520 15 187 9.7 20.9 0.00 0.00 0.00 48 1006.0
20260508193114 14 204 12.9 19.3 0.00 0.00 0.00 49 1006.0
20260508192600 15 208 17.7 20.9 0.00 0.00 0.00 47 1006.1
20260508192050 15 205 12.9 22.5 0.00 0.00 0.00 48 1006.2
20260508191535 15 207 12.9 25.7 0.00 0.00 0.00 49 1006.2
20260508191029 14 215 9.7 16.1 0.00 0.00 0.00 53 1006.2
20260508190523 13 207 9.7 19.3 0.00 0.00 0.00 51 1006.3
20260508190020 13 208 11.3 19.3 0.00 0.00 0.00 53 1006.3
20260508185618 14 210 9.7 16.1 0.00 0.00 0.00 52 1006.4
20260508185105 14 191 8.0 14.5 0.00 0.00 0.00 55 1006.4
20260508184556 13 196 6.4 14.5 0.00 0.00 0.00 57 1006.5
20260508184050 12 202 9.7 16.1 0.00 0.00 0.00 55 1006.6
20260508183541 12 209 11.3 17.7 0.00 0.00 0.00 57 1006.6
20260508183035 12 205 9.7 22.5 0.00 0.00 0.00 56 1006.7
20260508182525 12 207 11.3 22.5 0.00 0.00 0.00 55 1006.8
20260508182111 12 207 14.5 25.7 0.00 0.00 0.00 53 1006.6
20260508181608 12 207 14.5 20.9 0.00 0.00 0.00 49 1006.5
20260508181101 12 188 11.3 27.4 0.00 0.00 0.00 47 1006.3
20260508180555 13 176 11.3 27.4 0.00 0.00 0.00 44 1006.0
20260508180045 13 171 11.3 27.4 0.00 0.00 0.00 42 1005.9
20260508175538 14 191 11.3 25.7 0.00 0.00 0.00 41 1005.7
20260508175029 14 201 8.0 12.9 0.00 0.00 0.00 40 1005.6
20260508174523 15 190 6.4 9.7 0.00 0.00 0.00 41 1005.5
20260508174018 14 198 4.8 9.7 0.00 0.00 0.00 40 1005.5
20260508173606 15 196 6.4 11.3 0.00 0.00 0.00 39 1005.6
20260508173117 15 183 6.4 11.3 0.00 0.00 0.00 39 1005.6
20260508172556 15 178 4.8 8.0 0.00 0.00 0.00 41 1005.7
20260508172044 15 186 6.4 14.5 0.00 0.00 0.00 40 1005.6
20260508171532 15 171 4.8 17.7 0.00 0.00 0.00 38 1005.7
20260508171020 15 188 8.0 17.7 0.00 0.00 0.00 42 1005.7
20260508170619 14 167 4.8 8.0 0.00 0.00 0.00 42 1005.8
20260508170147 14 199 6.4 11.3 0.00 0.00 0.00 41 1005.9
20260508165557 15 200 8.0 11.3 0.00 0.00 0.00 38 1005.9
20260508165111 15 169 8.0 11.3 0.00 0.00 0.00 39 1005.9
20260508164610 15 183 6.4 14.5 0.00 0.00 0.00 39 1006.0
20260508164040 15 195 9.7 17.7 0.00 0.00 0.00 39 1006.1
20260508163540 15 167 8.0 16.1 0.00 0.00 0.00 40 1006.3
20260508163040 15 197 8.0 17.7 0.00 0.00 0.00 39 1006.3
20260508162608 14 198 6.4 12.9 0.00 0.00 0.00 38 1006.4
20260508162124 15 206 8.0 14.5 0.00 0.00 0.00 38 1006.4
20260508161634 15 188 8.0 14.5 0.00 0.00 0.00 38 1006.4
20260508161043 16 195 9.7 14.5 0.00 0.00 0.00 40 1006.5
20260508160558 15 200 8.0 14.5 0.00 0.00 0.00 42 1006.5
20260508160028 15 172 8.0 16.1 0.00 0.00 0.00 40 1006.5
20260508155618 15 150 4.8 17.7 0.00 0.00 0.00 42 1006.4
20260508155126 15 194 12.9 19.3 0.00 0.00 0.00 42 1006.5
20260508154553 15 154 4.8 12.9 0.00 0.00 0.00 42 1006.4
20260508154044 15 198 6.4 11.3 0.00 0.00 0.00 42 1006.4
20260508153539 15 175 6.4 14.5 0.00 0.00 0.00 42 1006.3
20260508153030 15 98 3.2 8.0 0.00 0.00 0.00 43 1006.6
20260508152525 15 162 8.0 14.5 0.00 0.00 0.00 43 1006.8
20260508152136 15 183 4.8 11.3 0.00 0.00 0.00 43 1006.6
20260508151603 15 129 4.8 9.7 0.00 0.00 0.00 43 1006.8
20260508151114 14 193 4.8 11.3 0.00 0.00 0.00 46 1006.7
20260508150540 14 196 6.4 12.9 0.00 0.00 0.00 44 1006.8
20260508150036 14 180 4.8 9.7 0.00 0.00 0.00 45 1006.8
20260508145522 13 210 6.4 12.9 0.00 0.00 0.00 46 1006.9
20260508145108 13 193 8.0 14.5 0.00 0.00 0.00 45 1006.9
20260508144622 13 202 8.0 14.5 0.00 0.00 0.00 45 1006.9
20260508144113 13 178 8.0 14.5 0.00 0.00 0.00 46 1007.0
20260508143540 13 186 8.0 16.1 0.00 0.00 0.00 45 1007.0
20260508143035 13 156 6.4 12.9 0.00 0.00 0.00 46 1007.2
20260508142522 13 187 4.8 11.3 0.00 0.00 0.00 47 1007.1
20260508142115 13 211 4.8 11.3 0.00 0.00 0.00 45 1007.1
20260508141606 13 203 9.7 16.1 0.00 0.00 0.00 45 1007.0
20260508141053 13 198 6.4 14.5 0.00 0.00 0.00 47 1007.1
20260508140548 12 201 6.4 14.5 0.00 0.00 0.00 48 1007.3
20260508140054 13 196 6.4 14.5 0.00 0.00 0.00 46 1007.2
20260508135554 13 192 4.8 9.7 0.00 0.00 0.00 48 1007.2
20260508135041 12 198 4.8 8.0 0.00 0.00 0.00 48 1007.3
20260508134612 12 193 6.4 9.7 0.00 0.00 0.00 47 1007.3
20260508134108 12 194 4.8 12.9 0.00 0.00 0.00 48 1007.5
20260508133554 12 178 3.2 12.9 0.00 0.00 0.00 49 1007.4
20260508133042 11 211 9.7 16.1 0.00 0.00 0.00 47 1007.5
20260508132530 12 204 9.7 16.1 0.00 0.00 0.00 47 1007.5
20260508132041 12 187 8.0 16.1 0.00 0.00 0.00 49 1007.5
20260508131612 11 203 6.4 16.1 0.00 0.00 0.00 48 1007.6
20260508131108 11 203 4.8 14.5 0.00 0.00 0.00 49 1007.6
20260508130558 11 189 6.4 14.5 0.00 0.00 0.00 50 1007.7
20260508130054 11 178 6.4 14.5 0.00 0.00 0.00 50 1007.5
20260508125540 11 193 8.0 14.5 0.00 0.00 0.00 50 1007.5
20260508125036 11 208 6.4 12.9 0.00 0.00 0.00 51 1007.6
20260508124526 11 181 8.0 12.9 0.00 0.00 0.00 51 1007.6
20260508124021 10 200 4.8 9.7 0.00 0.00 0.00 52 1007.5
20260508123613 10 195 6.4 9.7 0.00 0.00 0.00 52 1007.6
20260508123118 10 170 9.7 17.7 0.00 0.00 0.00 53 1007.6
20260508122626 10 207 6.4 12.9 0.00 0.00 0.00 52 1007.5
20260508122056 10 220 6.4 9.7 0.00 0.00 0.00 52 1007.4
20260508121543 10 222 4.8 11.3 0.00 0.00 0.00 54 1007.4
20260508121115 10 188 4.8 8.0 0.00 0.00 0.00 55 1007.4
20260508120614 9 201 3.2 8.0 0.00 0.00 0.00 55 1007.4
20260508120101 9 165 3.2 8.0 0.00 0.00 0.00 55 1007.5
20260508115556 8 210 6.4 14.5 0.00 0.00 0.00 53 1007.4
20260508115043 8 188 6.4 9.7 0.00 0.00 0.00 54 1007.5
20260508114534 8 204 3.2 8.0 0.00 0.00 0.00 55 1007.5
20260508114021 8 202 4.8 8.0 0.00 0.00 0.00 57 1007.5
20260508113633 7 183 3.2 8.0 0.00 0.00 0.00 58 1007.5
20260508113107 7 196 4.8 9.7 0.00 0.00 0.00 58 1007.5
20260508112614 7 193 4.8 9.7 0.00 0.00 0.00 58 1007.4
20260508112045 7 166 3.2 6.4 0.00 0.00 0.00 58 1007.4
20260508111531 7 176 3.2 6.4 0.00 0.00 0.00 58 1007.3
20260508111021 7 178 4.8 6.4 0.00 0.00 0.00 57 1007.3
20260508110517 7 193 4.8 8.0 0.00 0.00 0.00 58 1007.3
20260508110149 7 190 6.4 8.0 0.00 0.00 0.00 59 1007.2
20260508105555 7 175 4.8 6.4 0.00 0.00 0.00 61 1007.2
20260508105046 6 171 4.8 8.0 0.00 0.00 0.00 61 1007.1
20260508104533 6 151 4.8 9.7 0.00 0.00 0.00 60 1007.0
20260508104028 7 161 4.8 6.4 0.00 0.00 0.00 60 1007.0
20260508103641 7 172 4.8 8.0 0.00 0.00 0.00 58 1006.8
20260508103127 6 154 4.8 8.0 0.00 0.00 0.00 58 1006.9
20260508102558 6 154 6.4 9.7 0.00 0.00 0.00 58 1006.8
20260508102045 6 179 4.8 6.4 0.00 0.00 0.00 56 1006.8
20260508101540 6 167 4.8 6.4 0.00 0.00 0.00 57 1006.8
20260508101027 6 130 4.8 6.4 0.00 0.00 0.00 58 1006.6
20260508100612 6 172 3.2 6.4 0.00 0.00 0.00 57 1006.6
20260508100107 6 157 4.8 6.4 0.00 0.00 0.00 57 1006.6
20260508095606 6 166 3.2 8.0 0.00 0.00 0.00 56 1006.6
20260508095052 6 125 3.2 8.0 0.00 0.00 0.00 56 1006.5
20260508094548 6 165 4.8 8.0 0.00 0.00 0.00 56 1006.5
20260508094115 6 145 3.2 6.4 0.00 0.00 0.00 57 1006.5
20260508093526 6 129 3.2 6.4 0.00 0.00 0.00 57 1006.5
20260508093118 6 180 3.2 6.4 0.00 0.00 0.00 57 1006.4
20260508092605 7 178 3.2 6.4 0.00 0.00 0.00 55 1006.4
20260508092119 7 186 3.2 6.4 0.00 0.00 0.00 55 1006.4
20260508091546 6 215 3.2 6.4 0.00 0.00 0.00 55 1006.2
20260508091034 6 193 3.2 6.4 0.00 0.00 0.00 56 1006.3
20260508090517 7 197 4.8 9.7 0.00 0.00 0.00 55 1006.3
20260508090107 7 198 4.8 9.7 0.00 0.00 0.00 54 1006.3
20260508085557 7 198 4.8 9.7 0.00 0.00 0.00 55 1006.2
20260508085043 7 185 6.4 9.7 0.00 0.00 0.00 56 1006.3
20260508084534 7 183 6.4 9.7 0.00 0.00 0.00 56 1006.1
20260508084021 7 195 4.8 9.7 0.00 0.00 0.00 55 1006.1
20260508083537 7 190 6.4 9.7 0.00 0.00 0.00 56 1006.0
20260508083109 7 153 3.2 6.4 0.00 0.00 0.00 55 1006.0
20260508082551 7 175 4.8 8.0 0.00 0.00 0.00 55 1005.9
20260508082017 6 206 3.2 6.4 0.00 0.00 0.00 56 1005.8
20260508081612 7 181 3.2 12.9 0.00 0.00 0.00 57 1005.9
20260508081055 6 189 6.4 12.9 0.00 0.00 0.00 56 1006.0
20260508080547 6 198 3.2 8.0 0.00 0.00 0.00 57 1005.9
20260508080052 6 177 6.4 12.9 0.00 0.00 0.00 57 1005.9
20260508075531 6 196 4.8 12.9 0.00 0.00 0.00 58 1005.9
20260508075022 6 202 6.4 9.7 0.00 0.00 0.00 59 1005.9
20260508074619 6 191 6.4 9.7 0.00 0.00 0.00 61 1005.8
20260508074106 5 208 6.4 12.9 0.00 0.00 0.00 63 1005.7
20260508073554 5 351 3.2 8.0 0.00 0.00 0.00 67 1005.7
20260508073043 5 191 3.2 9.7 0.00 0.00 0.00 67 1005.6
20260508072538 5 174 1.6 8.0 0.00 0.00 0.00 66 1005.5
20260508072027 5 138 3.2 8.0 0.00 0.00 0.00 67 1005.5
20260508071523 4 194 3.2 8.0 0.00 0.00 0.00 68 1005.4
20260508071110 4 187 4.8 8.0 0.00 0.00 0.00 71 1005.4
20260508070555 3 159 3.2 6.4 0.00 0.00 0.00 73 1005.3
20260508070110 3 133 4.8 8.0 0.00 0.00 0.00 74 1005.2
20260508065551 3 67 0.0 3.2 0.00 0.00 0.00 74 1005.0
20260508065035 3 56 1.6 3.2 0.00 0.00 0.00 76 1005.1
20260508064525 3 71 1.6 3.2 0.00 0.00 0.00 73 1005.2
20260508064115 3 117 1.6 3.2 0.00 0.00 0.00 74 1005.2
20260508063623 3 145 1.6 3.2 0.00 0.00 0.00 76 1004.9
20260508063050 2 132 1.6 3.2 0.00 0.00 0.00 79 1005.0
20260508062548 2 105 1.6 3.2 0.00 0.00 0.00 81 1005.0
20260508062037 2 127 1.6 3.2 0.00 0.00 0.00 84 1004.9
20260508061523 2 110 1.6 3.2 0.00 0.00 0.00 85 1004.8
20260508061016 2 78 1.6 3.2 0.00 0.00 0.00 84 1004.9
20260508060611 2 0.0 1.6 0.00 0.00 0.00 82 1004.9
20260508060057 3 104 1.6 3.2 0.00 0.00 0.00 81 1005.0
20260508055547 3 77 1.6 3.2 0.00 0.00 0.00 81 1005.1
20260508055042 3 0.0 1.6 0.00 0.00 0.00 80 1005.1
20260508054539 3 82 0.0 3.2 0.00 0.00 0.00 75 1005.0
20260508054028 3 0.0 1.6 0.00 0.00 0.00 76 1005.0
20260508053617 3 78 1.6 3.2 0.00 0.00 0.00 77 1004.9
20260508053115 3 78 1.6 3.2 0.00 0.00 0.00 78 1005.0
20260508052623 3 65 1.6 3.2 0.00 0.00 0.00 77 1005.0
20260508052051 3 81 1.6 3.2 0.00 0.00 0.00 77 1005.0
20260508051536 3 67 1.6 3.2 0.00 0.00 0.00 75 1005.2
20260508051024 4 63 0.0 3.2 0.00 0.00 0.00 72 1005.3
20260508050614 4 85 1.6 3.2 0.00 0.00 0.00 73 1005.3
20260508050107 4 96 3.2 3.2 0.00 0.00 0.00 71 1005.2
20260508045612 4 79 1.6 3.2 0.00 0.00 0.00 70 1005.2
20260508045045 4 87 1.6 3.2 0.00 0.00 0.00 70 1005.3
20260508044539 4 91 1.6 3.2 0.00 0.00 0.00 71 1005.2
20260508044024 4 0.0 1.6 0.00 0.00 0.00 69 1005.2
20260508043616 4 54 1.6 3.2 0.00 0.00 0.00 70 1005.3
20260508043106 4 76 1.6 3.2 0.00 0.00 0.00 71 1005.5
20260508042601 5 83 1.6 3.2 0.00 0.00 0.00 70 1005.4
20260508042052 5 47 1.6 3.2 0.00 0.00 0.00 70 1005.5
20260508041530 5 72 0.0 3.2 0.00 0.00 0.00 67 1005.4
20260508041048 5 104 0.0 3.2 0.00 0.00 0.00 66 1005.5
20260508040619 5 108 0.0 3.2 0.00 0.00 0.00 66 1005.6
20260508040108 5 0.0 3.2 0.00 0.00 0.00 66 1005.5
20260508035555 6 128 1.6 3.2 0.00 0.00 0.00 65 1005.5
20260508035043 6 47 1.6 3.2 0.00 0.00 0.00 66 1005.5
20260508034533 6 166 0.0 3.2 0.00 0.00 0.00 64 1005.6
20260508034032 6 161 1.6 3.2 0.00 0.00 0.00 64 1005.5
20260508033519 6 162 1.6 3.2 0.00 0.00 0.00 65 1005.5
20260508033115 6 175 1.6 3.2 0.00 0.00 0.00 65 1005.5
20260508032616 6 175 1.6 3.2 0.00 0.00 0.00 65 1005.5
20260508032131 5 175 1.6 3.2 0.00 0.00 0.00 66 1005.6
20260508031544 5 128 0.0 3.2 0.00 0.00 0.00 65 1005.5
20260508031039 6 124 1.6 3.2 0.00 0.00 0.00 63 1005.6
20260508030523 6 74 1.6 3.2 0.00 0.00 0.00 62 1005.4
20260508030112 6 76 1.6 3.2 0.00 0.00 0.00 59 1005.5
20260508025611 6 81 1.6 3.2 0.00 0.00 0.00 58 1005.4
20260508025056 6 74 1.6 3.2 0.00 0.00 0.00 58 1005.5
20260508024547 7 79 1.6 3.2 0.00 0.00 0.00 57 1005.5
20260508024042 7 70 1.6 3.2 0.00 0.00 0.00 57 1005.5
20260508023533 7 84 3.2 3.2 0.00 0.00 0.00 57 1005.4
20260508023023 7 79 3.2 3.2 0.00 0.00 0.00 57 1005.5
20260508022619 7 80 3.2 3.2 0.00 0.00 0.00 59 1005.5
20260508022109 7 86 3.2 3.2 0.00 0.00 0.00 59 1005.4
20260508021625 7 61 1.6 3.2 0.00 0.00 0.00 58 1005.3
20260508021059 8 48 1.6 4.8 0.00 0.00 0.00 61 1005.4
20260508020543 8 35 1.6 4.8 0.00 0.00 0.00 55 1005.4
20260508020033 8 0.0 3.2 0.00 0.00 0.00 54 1005.4
20260508015526 8 175 1.6 4.8 0.00 0.00 0.00 54 1005.5
20260508015019 8 179 1.6 3.2 0.00 0.00 0.00 54 1005.5
20260508014628 8 184 1.6 3.2 0.00 0.00 0.00 55 1005.4
20260508014056 7 180 0.0 3.2 0.00 0.00 0.00 57 1005.5
20260508013604 7 125 0.0 3.2 0.00 0.00 0.00 59 1005.5
20260508013032 7 108 0.0 3.2 0.00 0.00 0.00 57 1005.5
20260508012520 8 0.0 3.2 0.00 0.00 0.00 59 1005.4
20260508012115 8 62 1.6 1.6 0.00 0.00 0.00 57 1005.2
20260508011624 9 0.0 1.6 0.00 0.00 0.00 52 1005.2
20260508011051 9 114 1.6 3.2 0.00 0.00 0.00 52 1005.2
20260508010539 9 169 0.0 3.2 0.00 0.00 0.00 51 1005.2
20260508010027 9 169 1.6 3.2 0.00 0.00 0.00 51 1004.9
20260508005619 9 156 1.6 3.2 0.00 0.00 0.00 50 1004.9
20260508005107 9 128 1.6 3.2 0.00 0.00 0.00 49 1004.9
20260508004615 10 125 1.6 3.2 0.00 0.00 0.00 49 1004.8
20260508004043 10 138 1.6 3.2 0.00 0.00 0.00 49 1004.6
20260508003531 10 0.0 3.2 0.00 0.00 0.00 48 1004.5
20260508003019 10 198 1.6 6.4 0.00 0.00 0.00 48 1004.6
20260508002603 10 200 1.6 3.2 0.00 0.00 0.00 48 1004.6
20260508002053 11 130 1.6 4.8 0.00 0.00 0.00 46 1004.3
20260508001549 11 184 3.2 6.4 0.00 0.00 0.00 46 1004.2
20260508001042 11 149 1.6 4.8 0.00 0.00 0.00 46 1004.2
20260508000531 11 68 1.6 4.8 0.00 0.00 0.00 46 1004.2
20260508000028 11 61 1.6 3.2 0.00 0.00 0.00 45 1004.0
20260507235617 12 210 1.6 6.4 0.00 0.00 0.00 44 1004.0
20260507235104 12 198 3.2 8.0 0.00 0.00 0.00 42 1003.9
20260507234552 12 181 3.2 9.7 0.00 0.00 0.00 42 1003.8
20260507234040 12 196 1.6 12.9 0.00 0.00 0.00 41 1003.9
20260507233528 12 202 4.8 9.7 0.00 0.00 0.00 39 1003.8
20260507233016 13 211 4.8 9.7 0.00 0.00 0.00 38 1003.8
20260507232612 13 207 6.4 9.7 0.00 0.00 0.00 38 1003.8
20260507232059 13 216 4.8 11.3 0.00 0.00 0.00 38 1003.7
20260507231547 13 210 6.4 11.3 0.00 0.00 0.00 37 1003.7
20260507231029 13 210 4.8 14.5 0.00 0.00 0.00 37 1003.7
20260507230523 13 198 6.4 14.5 0.00 0.00 0.00 39 1003.7
20260507230115 13 216 4.8 11.3 0.00 0.00 0.00 39 1003.8
20260507225604 13 205 4.8 8.0 0.00 0.00 0.00 39 1003.6
20260507225052 13 205 4.8 17.7 0.00 0.00 0.00 37 1003.7
20260507224547 13 212 9.7 14.5 0.00 0.00 0.00 37 1003.6
20260507224038 13 201 6.4 11.3 0.00 0.00 0.00 38 1003.6
20260507223531 14 214 1.6 8.0 0.00 0.00 0.00 39 1003.7
20260507223021 14 197 4.8 19.3 0.00 0.00 0.00 36 1003.4
20260507222613 14 194 6.4 19.3 0.00 0.00 0.00 38 1003.5
20260507222101 14 172 1.6 9.7 0.00 0.00 0.00 37 1003.5
20260507221555 14 213 6.4 19.3 0.00 0.00 0.00 35 1003.4
20260507221044 14 234 6.4 11.3 0.00 0.00 0.00 36 1003.5
20260507220540 14 206 9.7 19.3 0.00 0.00 0.00 36 1003.5
20260507220033 14 200 8.0 16.1 0.00 0.00 0.00 36 1003.4
20260507215528 14 208 9.7 17.7 0.00 0.00 0.00 35 1003.5
20260507215123 14 210 9.7 27.4 0.00 0.00 0.00 36 1003.5
20260507214605 15 212 14.5 27.4 0.00 0.00 0.00 36 1003.4
20260507214059 15 204 9.7 19.3 0.00 0.00 0.00 35 1003.5
20260507213621 15 219 8.0 17.7 0.00 0.00 0.00 37 1003.5
20260507213049 15 237 4.8 14.5 0.00 0.00 0.00 37 1003.4
20260507212524 15 164 6.4 24.1 0.00 0.00 0.00 37 1003.4
20260507212019 15 210 8.0 24.1 0.00 0.00 0.00 36 1003.2
20260507211635 15 202 6.4 20.9 0.00 0.00 0.00 36 1003.2
20260507211109 15 201 9.7 16.1 0.00 0.00 0.00 38 1003.1
20260507210604 16 110 6.4 14.5 0.00 0.00 0.00 37 1003.1
20260507210100 16 232 3.2 14.5 0.00 0.00 0.00 36 1003.0
20260507205547 16 328 4.8 11.3 0.00 0.00 0.00 38 1002.9
20260507205035 15 279 3.2 27.4 0.00 0.00 0.00 38 1002.9
20260507204523 16 208 6.4 27.4 0.00 0.00 0.00 36 1003.0
20260507204132 16 207 9.7 17.7 0.00 0.00 0.00 37 1002.9